Погода в Алферове

Россия / Смоленская область     55°09′07″N   33°47′20″E
темп.,
°C
ветер,
м/с
пор.,
м/с
влажн.,
%
обл.,
%
осадки,
мм/ч
давл.,
гПа
погр.,
м
5 декабря, вс
вс500:00−3юз3893100 0.1 1010387
03:00−5ююз249798 0.1 1011100
06:00−3ююз3895100 0.1 1010470
09:00−3ююз389593 0.6 1012457
12:00−2юз3793100 0.6 1013525
15:00−2юз2594100 0.9 1013428
18:00−4ю1196100 0.3 101518
21:00−4ю139699 0.4 101692
6 декабря, пн
пн600:00−6ююв1299100 0.0 101752
03:00−5юв1399100 0.1 101878
06:00−6вюв2398100 0.0 101791
09:00−6вюв2596100 0.0 1018136
12:00−3ююв2593100 0.1 1018270
15:00−2вюв3788100 0.4 1017405
18:00−3вюв389196 0.0 1017281
21:00−3вюв3990100 0.0 1017350
7 декабря, вт
вт700:00−3вюв3996100 0.3 1015349
03:00−3вюв3997100 0.9 1013389
06:00−2юв3797100 2.3 1011330
09:00−3вюв139887 3.3 101083
12:00−1ю1297100 0.2 1010157
15:000с1199100 0.7 1009112
18:00−2с1299100 0.8 100955
21:00−2ссз2498100 1.1 1009114
8 декабря, ср
ср800:00−3ссз2697100 0.3 1010201
03:00−4ссз379657 0.3 1012238
06:00−6ссз379774 0.0 1013202
09:00−8с379656 0.0 1015185
12:00−7ссв359061 0.0 1017218
15:00−7ссв389243 0.0 1017299
18:00−9ссв3109376 0.0 1018280
21:00−9ссв4109290 0.0 1018308
9 декабря, чт
чт900:00−8св41193100 0.1 1018295
03:00−8св41194100 0.9 1018312
06:00−8св41194100 1.9 1017341
09:00−8св41194100 3.4 1017347
12:00−7св41094100 1.0 1016333
15:00−6ссв3895100 2.5 1016307
18:00−6ссв4995100 1.3 1017334
21:00−7св399499 1.7 1017316